Wind_Speed
33 32 34 34 34 34 36 37 37 39 38 34 30 28 27 23 24 30 31 30 28 27 27 25 23 15 12 10 3 3 1 4 7 12 21 21 15 13 13 10 10 9 5 8 9
34 35 37 37 37 37 37 38 37 36 36 33 29 29 26 25 23 25 28 29 28 28 29 27 25 18 17 13 8 7 5 3 6 9 15 20 18 12 12 12 12 10 9 6 9
38 39 40 39 39 38 37 37 36 35 33 29 28 26 25 24 20 23 24 27 28 29 30 30 27 22 20 16 12 10 9 6 6 8 16 19 21 15 12 13 12 11 11 9 7
44 42 40 42 41 40 38 36 33 33 31 29 30 28 25 23 21 22 25 28 29 26 30 33 29 24 22 19 16 13 11 10 8 6 11 16 18 17 15 12 11 13 13 10 8
41 42 43 43 41 38 35 34 33 31 30 31 31 29 26 24 23 23 27 30 31 29 29 36 33 28 25 23 18 18 15 12 14 8 8 15 16 16 17 17 16 15 12 12 11
36 37 37 37 38 37 36 36 36 33 32 33 33 29 27 25 25 21 24 28 31 33 33 39 36 32 28 26 23 21 18 14 15 13 10 16 20 22 20 19 20 16 15 14 11
36 34 34 36 36 36 37 36 36 35 34 35 33 31 29 25 25 22 24 28 30 36 36 41 40 34 31 30 25 23 19 17 16 17 14 20 25 26 25 23 21 18 14 17 19
39 42 41 37 35 34 33 38 39 38 38 37 34 31 29 29 27 25 27 30 31 37 39 45 44 37 33 33 25 25 21 18 16 20 19 22 27 29 25 23 22 20 23 29 30
37 37 40 44 44 42 41 41 41 41 41 40 36 32 28 33 31 30 29 31 32 40 44 50 47 41 36 34 29 27 22 21 20 23 23 23 25 27 24 21 21 22 25 25 24
34 37 38 41 42 46 47 49 48 46 45 43 38 34 30 35 34 29 29 29 30 43 47 52 50 43 39 37 33 31 25 22 23 25 25 24 24 23 23 21 23 25 23 22 21
33 34 38 39 42 43 43 51 54 50 49 45 41 36 30 37 34 28 27 26 30 44 52 55 52 48 43 38 37 35 27 27 25 25 25 24 23 26 27 25 22 25 25 25 22
36 35 34 36 40 41 42 46 50 55 54 50 46 41 34 34 34 30 26 27 32 45 54 57 55 50 48 44 42 39 31 31 28 27 27 27 28 27 24 26 25 24 25 24 21
38 37 36 35 36 39 40 44 47 48 50 54 51 45 39 36 34 32 26 28 35 42 54 59 59 55 52 47 44 42 33 33 28 29 30 29 29 29 25 27 28 27 25 24 23
44 41 39 39 38 38 40 43 46 47 46 45 46 48 45 42 34 33 28 27 37 43 53 60 58 57 52 49 46 45 38 35 35 34 32 29 29 30 29 29 28 26 24 23 21
49 49 47 41 40 40 40 43 44 45 44 42 42 45 46 43 37 34 29 27 39 45 50 59 60 59 55 54 49 44 40 39 38 37 35 31 27 28 27 29 30 28 23 18 16
52 55 53 49 45 45 42 44 48 45 41 42 40 42 43 48 38 36 33 29 39 45 51 60 65 60 58 54 51 47 38 32 40 41 39 32 31 30 30 30 29 27 25 23 22
50 55 56 52 53 50 45 45 50 49 45 43 41 43 43 49 41 40 36 32 36 48 48 58 63 63 57 55 55 49 54 51 41 42 40 39 33 33 32 31 31 30 28 25 22
45 50 54 50 55 52 51 46 47 54 55 46 45 44 45 48 44 42 38 34 36 48 54 61 66 61 56 56 56 56 46 50 48 45 39 41 39 37 34 33 32 32 30 29 28
48 42 43 49 50 54 53 50 51 56 56 52 48 46 46 48 47 44 41 37 41 48 55 62 72 70 64 62 58 58 55 53 50 45 41 35 39 40 40 40 38 35 31 30 32
45 42 44 41 50 50 54 55 57 57 60 59 54 46 46 48 50 48 45 42 44 47 57 65 76 77 64 67 63 59 62 59 56 51 44 41 39 37 44 46 42 38 33 31 30
39 39 43 42 45 50 55 58 57 61 60 61 59 53 47 49 51 52 51 48 47 50 56 65 76 79 72 64 67 65 60 62 60 53 48 48 44 41 47 47 46 43 45 42 39
39 37 35 38 40 42 51 55 58 66 65 62 63 58 50 50 53 56 55 53 50 53 55 61 76 79 79 71 73 71 66 64 63 58 55 53 51 48 48 52 49 45 44 46 44
39 35 35 31 33 38 40 51 59 63 70 65 63 61 56 51 54 57 60 58 52 54 55 62 70 82 79 72 72 69 71 68 62 64 53 55 52 52 51 53 52 50 48 49 48
54 34 33 32 30 31 36 41 51 62 71 70 66 66 63 55 54 57 63 62 58 55 57 61 67 79 80 80 72 70 69 66 63 63 58 57 57 56 56 55 53 52 52 53 53
56 36 31 30 29 28 30 38 49 56 66 72 70 68 67 62 58 62 63 67 63 57 58 60 65 74 85 87 80 77 72 72 66 48 60 59 57 61 58 59 59 58 56 56 57
51 34 34 28 27 27 29 34 45 61 68 72 72 68 69 69 65 65 64 69 67 62 58 61 62 72 84 90 91 84 82 74 71 62 49 64 64 66 66 66 65 63 60 57 53
50 37 33 30 30 28 29 32 38 58 71 75 73 73 72 71 64 64 67 66 70 67 63 60 63 66 74 89 95 94 81 82 80 80 76 72 69 73 71 68 65 63 63 63 63
Wind_Direction
266 259 258 266 267 271 273 273 270 265 266 270 265 264 262 255 256 254 248 245 241 239 236 225 225 218 216 222 211 190 201 206 155 176 185 194 170 161 148 141 148 138 139 189 201
267 267 265 267 267 269 271 273 268 264 262 265 263 260 260 263 250 246 247 242 240 231 229 220 221 211 211 214 204 193 152 128 153 179 188 201 202 170 176 171 173 167 166 188 209
269 273 269 268 267 268 266 268 264 260 262 259 259 259 263 256 240 241 243 237 235 228 222 217 219 211 208 203 193 176 169 130 140 185 191 202 204 190 176 174 177 184 175 196 206
268 269 265 263 264 266 265 263 260 259 258 255 257 263 260 250 246 248 246 242 237 230 218 212 215 211 208 194 185 177 165 146 134 166 179 185 189 200 196 193 199 185 175 197 202
265 265 265 264 263 263 261 259 259 256 252 253 259 265 253 252 253 256 252 244 239 232 220 208 210 207 205 192 189 184 165 154 138 147 182 162 164 171 182 184 183 178 187 174 156
267 264 262 262 260 259 256 258 257 250 248 252 259 262 252 251 254 259 252 248 241 231 221 206 207 204 201 194 186 182 180 162 150 146 161 148 145 152 161 158 161 164 158 154 151
266 266 264 261 258 258 258 256 252 248 247 252 260 259 252 255 254 258 256 256 251 228 215 203 204 202 200 194 187 182 176 168 157 152 154 143 143 141 139 135 134 139 146 145 145
272 267 264 260 257 254 254 253 247 246 247 252 258 259 252 255 254 259 260 257 251 222 209 200 201 201 200 199 188 184 173 175 163 155 160 154 147 140 135 134 138 133 129 131 136
277 274 268 261 257 253 252 253 248 248 248 252 254 257 251 252 255 260 269 266 244 213 204 196 198 198 196 199 193 180 175 176 171 162 167 160 153 146 143 145 146 141 136 136 138
284 274 272 266 262 257 254 253 250 250 251 251 250 254 250 252 256 262 274 256 236 208 199 193 195 195 195 195 190 185 175 179 175 169 171 167 161 151 158 154 152 151 150 152 148
300 288 274 266 264 260 257 254 251 249 248 247 249 250 248 250 254 259 273 245 227 206 196 191 192 193 196 194 192 184 177 179 177 171 170 172 165 157 158 157 158 159 157 156 150
294 293 284 275 264 260 256 254 253 250 247 246 247 244 243 250 249 256 267 238 220 206 195 191 190 191 196 195 193 188 179 175 178 174 172 168 162 152 159 158 166 169 160 153 147
286 282 282 280 272 262 257 255 253 250 249 245 245 242 240 244 245 249 259 237 218 207 196 192 192 192 196 196 196 191 181 179 180 179 177 176 168 156 169 170 170 165 161 158 155
279 273 273 273 272 265 255 254 254 250 247 245 244 241 238 237 240 242 249 237 217 206 198 196 191 194 196 197 200 194 189 183 190 183 180 182 175 165 174 173 167 166 172 172 167
277 273 267 264 266 264 255 248 251 249 245 244 241 236 232 233 231 239 243 239 216 206 199 198 195 197 195 197 197 197 194 188 190 183 176 179 175 171 177 178 174 177 178 178 182
282 273 271 265 258 259 252 245 243 245 245 243 237 234 227 229 225 231 236 239 213 206 205 197 196 198 200 200 200 198 189 199 190 184 184 183 178 180 182 184 183 186 187 191 194
289 277 270 265 260 258 255 245 240 241 243 241 235 234 224 226 218 224 227 235 215 204 205 201 197 201 201 202 204 202 189 195 194 193 199 203 201 189 193 188 189 192 195 201 204
292 283 274 267 263 257 253 248 239 238 240 239 235 230 225 222 215 219 223 231 218 210 202 197 197 201 200 201 205 198 195 199 204 200 203 202 205 203 201 201 198 199 203 205 209
291 274 272 264 264 255 250 249 238 234 235 236 234 228 225 221 213 214 216 224 218 207 203 198 197 194 198 197 199 198 193 203 205 204 210 212 214 219 216 209 207 209 212 217 220
296 280 269 265 260 257 249 247 242 233 230 231 234 231 224 221 213 211 212 219 214 210 204 201 197 194 190 200 199 200 200 203 202 206 211 214 224 223 223 224 216 214 220 230 238
298 294 276 266 261 254 251 246 240 237 230 227 230 232 225 220 214 208 212 214 213 209 206 204 200 198 192 202 201 200 203 206 206 207 213 216 225 227 227 227 224 226 222 226 229
303 297 292 276 263 256 247 246 239 231 228 226 225 228 226 221 215 210 211 212 213 209 206 206 201 200 200 204 203 203 205 210 211 214 212 218 226 232 231 227 228 230 232 231 234
321 300 299 279 266 259 249 241 236 231 226 224 222 223 223 222 217 212 211 213 211 209 208 208 203 202 203 200 209 208 210 213 215 219 222 224 226 232 234 235 237 236 237 235 240
336 305 300 286 267 263 250 241 232 228 222 221 220 219 220 219 217 214 214 212 212 209 209 208 206 203 201 200 199 207 204 209 214 222 218 224 228 231 230 234 238 240 244 248 248
330 312 299 284 274 272 257 239 226 224 220 219 219 218 217 216 214 213 214 212 211 209 209 208 206 204 205 204 199 198 205 205 204 207 223 222 226 230 233 229 233 237 241 244 249
332 310 302 285 279 273 267 245 228 219 218 217 218 217 216 217 215 213 212 213 209 210 209 209 209 207 207 209 204 201 202 204 208 206 214 219 224 231 231 232 235 238 237 236 240
325 314 301 288 286 273 267 249 231 218 215 216 215 215 213 216 218 216 214 213 211 211 210 209 210 210 211 211 212 208 207 210 213 217 218 217 222 226 231 232 234 237 240 240 243
Height
10960 10960 10961 10961 10962 10962 10962 10962 10963 10963 10965 10968 10969 10970 10971 10973 10974 10971 10974 10977 10981 10985 10989 10993 10996 10999 11000 11002 11002 11002 11000 10999 10998 11000 11003 11004 11006 11008 11009 11010 11013 11015 11015 11016 11018
10952 10952 10953 10953 10954 10954 10954 10954 10954 10955 10957 10959 10962 10963 10965 10967 10967 10967 10969 10971 10975 10980 10984 10988 10992 10996 10998 11000 11002 11001 10998 10998 10998 10999 11001 11003 11005 11007 11009 11011 11013 11014 11015 11016 11018
10944 10944 10944 10945 10945 10946 10946 10946 10947 10948 10949 10951 10953 10956 10958 10960 10962 10962 10964 10965 10969 10973 10979 10984 10988 10992 10995 10998 11000 11000 10998 10997 10998 10999 10999 11001 11003 11006 11008 11011 11013 11014 11015 11017 11017
10934 10934 10934 10935 10936 10937 10938 10938 10939 10941 10942 10944 10946 10949 10951 10953 10956 10957 10958 10960 10964 10968 10973 10977 10983 10987 10990 10995 10997 10999 10997 10997 10999 10999 10999 11000 11001 11004 11007 11010 11013 11014 11015 11016 11017
10924 10924 10924 10925 10926 10927 10929 10930 10932 10934 10935 10937 10939 10942 10944 10946 10949 10951 10952 10954 10957 10962 10966 10971 10977 10983 10987 10992 10995 10997 10997 10997 10997 11000 10999 10999 11000 11002 11006 11009 11012 11014 11015 11016 11018
10914 10914 10915 10915 10917 10918 10920 10921 10923 10926 10928 10930 10932 10934 10937 10940 10941 10944 10945 10946 10950 10954 10959 10965 10971 10978 10984 10989 10992 10994 10996 10996 10997 10999 11001 11000 11000 11003 11005 11008 11011 11013 11015 11017 11019
10906 10906 10906 10906 10908 10910 10911 10911 10913 10917 10919 10921 10924 10927 10930 10933 10934 10937 10938 10939 10941 10945 10952 10958 10965 10973 10979 10984 10988 10991 10993 10994 10995 10998 11002 11001 11001 11003 11005 11008 11010 11014 11016 11017 11020
10898 10897 10897 10898 10898 10901 10901 10902 10904 10907 10910 10912 10916 10919 10923 10923 10926 10929 10929 10930 10932 10936 10944 10951 10959 10967 10975 10981 10985 10989 10991 10994 10994 10997 11002 11003 11002 11002 11006 11008 11011 11015 11017 11019 11022
10889 10888 10887 10887 10888 10891 10892 10892 10894 10897 10899 10903 10907 10911 10916 10914 10917 10919 10920 10921 10922 10927 10934 10943 10953 10961 10970 10977 10983 10987 10990 10992 10993 10996 11001 11003 11003 11002 11005 11009 11013 11016 11020 11021 11024
10879 10878 10877 10877 10877 10879 10881 10880 10882 10886 10889 10893 10898 10903 10908 10906 10908 10911 10910 10910 10913 10919 10927 10936 10945 10955 10964 10973 10980 10983 10987 10990 10991 10994 10998 11001 11003 11003 11006 11010 11013 11016 11020 11023 11025
10871 10868 10866 10865 10865 10867 10868 10868 10870 10875 10877 10884 10888 10894 10898 10897 10900 10903 10903 10903 10906 10913 10920 10929 10940 10948 10959 10968 10974 10979 10983 10986 10989 10992 10996 10999 11002 11002 11005 11009 11013 11016 11019 11023 11025
10861 10857 10855 10853 10853 10855 10856 10855 10856 10860 10866 10871 10877 10883 10888 10889 10893 10895 10896 10898 10901 10906 10915 10924 10932 10944 10952 10962 10969 10974 10978 10983 10986 10990 10994 10997 10999 11000 11005 11008 11012 11017 11019 11022 11025
10851 10846 10844 10840 10840 10841 10843 10843 10843 10847 10851 10859 10865 10872 10877 10880 10885 10888 10890 10891 10896 10903 10910 10916 10924 10935 10945 10955 10963 10969 10974 10980 10984 10989 10991 10994 10996 10996 11003 11007 11011 11015 11019 11020 11022
10837 10832 10830 10828 10827 10827 10829 10830 10830 10834 10839 10845 10851 10859 10865 10870 10877 10880 10883 10885 10890 10895 10903 10912 10923 10929 10940 10949 10957 10965 10971 10975 10980 10984 10988 10993 10994 10995 11000 11006 11010 11014 11016 11019 11020
10822 10817 10815 10814 10814 10813 10814 10817 10818 10821 10827 10834 10839 10844 10852 10860 10865 10871 10875 10877 10882 10889 10898 10906 10918 10924 10932 10940 10951 10960 10967 10972 10977 10981 10986 10990 10993 10994 10999 11002 11004 11007 11011 11015 11018
10807 10801 10800 10800 10799 10797 10799 10802 10805 10809 10816 10820 10827 10832 10840 10845 10857 10862 10866 10869 10874 10885 10890 10901 10908 10919 10926 10938 10947 10957 10965 10971 10975 10979 10982 10987 10988 10991 10994 10998 11000 11004 11007 11010 11012
10789 10784 10783 10784 10782 10783 10785 10787 10791 10799 10801 10808 10815 10819 10828 10833 10846 10851 10857 10860 10866 10874 10884 10897 10906 10914 10923 10932 10940 10950 10957 10964 10970 10975 10978 10981 10986 10986 10990 10995 10997 10999 11003 11006 11009
10769 10763 10763 10764 10764 10766 10770 10774 10780 10782 10785 10795 10801 10808 10815 10821 10834 10841 10848 10852 10858 10866 10873 10884 10897 10909 10920 10925 10933 10942 10952 10957 10961 10966 10971 10974 10979 10982 10986 10990 10992 10995 10999 11001 11003
10748 10742 10741 10743 10743 10748 10754 10759 10760 10764 10772 10781 10787 10795 10803 10811 10822 10830 10838 10843 10847 10854 10864 10874 10882 10894 10905 10913 10925 10934 10944 10948 10956 10960 10968 10972 10972 10977 10980 10984 10986 10989 10992 10995 10998
10728 10724 10722 10723 10724 10728 10735 10738 10743 10747 10754 10765 10773 10784 10792 10799 10809 10819 10827 10831 10837 10845 10852 10861 10870 10884 10896 10905 10917 10924 10931 10941 10947 10953 10959 10965 10965 10969 10972 10976 10980 10984 10986 10989 10993
10710 10705 10703 10703 10705 10708 10712 10718 10724 10732 10739 10749 10761 10770 10780 10787 10796 10807 10814 10820 10826 10832 10841 10849 10862 10874 10887 10902 10909 10917 10925 10931 10938 10945 10950 10955 10955 10960 10962 10969 10973 10976 10978 10980 10983
10694 10688 10684 10683 10683 10687 10692 10697 10703 10710 10721 10732 10745 10757 10767 10775 10784 10792 10801 10807 10814 10823 10833 10841 10852 10868 10881 10883 10895 10905 10914 10921 10928 10935 10941 10944 10947 10950 10954 10958 10963 10967 10970 10973 10976
10679 10674 10668 10666 10668 10669 10672 10677 10682 10690 10702 10715 10729 10743 10754 10762 10771 10779 10786 10796 10806 10815 10823 10831 10846 10853 10866 10881 10888 10902 10906 10912 10920 10924 10935 10937 10939 10941 10947 10950 10954 10958 10961 10966 10968
10665 10659 10655 10652 10651 10652 10654 10657 10661 10670 10683 10698 10711 10726 10738 10747 10757 10767 10773 10784 10794 10803 10811 10822 10831 10847 10862 10868 10875 10884 10894 10901 10908 10918 10925 10927 10929 10932 10935 10941 10947 10950 10953 10956 10959
10654 10645 10642 10639 10638 10637 10638 10641 10646 10654 10668 10679 10694 10707 10722 10732 10740 10749 10757 10768 10780 10792 10801 10811 10823 10833 10844 10850 10861 10870 10879 10887 10899 10905 10911 10917 10922 10921 10929 10934 10937 10940 10944 10946 10948
10640 10632 10629 10626 10624 10624 10623 10625 10629 10636 10649 10663 10677 10694 10707 10716 10722 10733 10747 10753 10767 10781 10790 10800 10810 10818 10828 10837 10848 10857 10866 10879 10887 10891 10896 10903 10909 10912 10918 10921 10923 10927 10932 10934 10937
10628 10620 10615 10614 10612 10611 10609 10610 10613 10619 10632 10646 10661 10675 10689 10702 10717 10726 10733 10745 10754 10766 10777 10789 10797 10808 10815 10821 10831 10846 10867 10868 10872 10877 10882 10889 10893 10897 10902 10909 10912 10915 10919 10923 10927